Weather History for KI75 - March, 2013

Change the Weather History Date:

Monday, March 4, 2013

  Actual Average (KLWD) Record (KLWD)
Temperature  
Mean Temperature 34 °F 35 °F  
Max Temperature 38 °F 44 °F 67 °F (1987)
Min Temperature 29 °F 25 °F -2 °F (2002)
Degree Days  
Heating Degree Days 32 30  
Month to date heating degree days 124  
Since 1 July heating degree days 4841  
Cooling Degree Days 0 0  
Month to date cooling degree days 0  
Year to date cooling degree days 0  
Moisture  
Dew Point 27 °F    
Average Humidity 79    
Maximum Humidity 95    
Minimum Humidity 67    
Precipitation  
Precipitation 0.00 in 0.06 in 1.18 in (1976)
Month to date precipitation 0.24  
Sea Level Pressure  
Sea Level Pressure 29.81 in    
Wind  
Wind Speed 12 mph (East)    
Max Wind Speed 17 mph    
Max Gust Speed 23 mph    
Visibility 9 miles    
Events Snow    
T = Trace of Precipitation, MM = Missing Value Source: NWS Daily Summary

Daily Weather History Graph

Daily Weather History Graph

Search for Another Location

Airport or City:

Trip Planner

Search our weather history database for the weather conditions in past years. The results will help you decide how hot, cold, wet, or windy it might be!

Date:

Astronomy

Mar. 04, 2013 Rise Set
Actual Time 6:43 AM CST 6:09 PM CST
Civil Twilight 6:16 AM CST 6:37 PM CST
Nautical Twilight 5:44 AM CST 7:08 PM CST
Astronomical Twilight 5:12 AM CST 7:40 PM CST
Moon 12:56 AM CST (3/4) 10:49 AM CST (3/4)
Length of Visible Light 12h 20m
Length of Day
11h 25m
Waning Gibbous, 52% of the Moon is Illuminated
Mar 4
Waning Gibbous
Mar 4
Last Quarter
Mar 11
New
Mar 19
First Quarter
Mar 27
Full

Hourly Weather History & Observations

Time (CST) Temp. Windchill Dew Point Humidity Pressure Visibility Wind Dir Wind Speed Gust Speed Precip Events Conditions
12:15 AM 29.3 °F 19.1 °F 22.6 °F 76% 29.86 in 10.0 mi ESE 12.7 mph - N/A   Overcast
12:35 AM 29.3 °F 17.7 °F 22.6 °F 76% 29.85 in 10.0 mi ESE 16.1 mph - N/A   Overcast
12:55 AM 29.3 °F 17.7 °F 22.6 °F 76% 29.84 in 10.0 mi East 16.1 mph - N/A   Overcast
1:15 AM 29.3 °F 17.7 °F 22.8 °F 77% 29.83 in 10.0 mi ESE 16.1 mph 19.6 mph N/A   Overcast
1:55 AM 29.3 °F 17.7 °F 23.0 °F 77% 29.82 in 10.0 mi ESE 16.1 mph - N/A   Scattered Clouds
2:15 AM 29.3 °F 17.3 °F 23.2 °F 78% 29.81 in 10.0 mi ESE 17.3 mph 23.0 mph N/A   Mostly Cloudy
2:35 AM 29.3 °F 17.3 °F 23.0 °F 77% 29.80 in 10.0 mi ESE 17.3 mph - N/A   Overcast
2:55 AM 29.1 °F 17.5 °F 23.2 °F 78% 29.79 in 10.0 mi ESE 16.1 mph - N/A   Overcast
3:15 AM 29.1 °F 18.4 °F 23.5 °F 80% 29.79 in 10.0 mi ESE 13.8 mph - N/A   Overcast
3:35 AM 29.3 °F 18.2 °F 23.9 °F 80% 29.78 in 10.0 mi ESE 15.0 mph - N/A   Overcast
3:55 AM 29.3 °F 18.2 °F 23.9 °F 80% 29.78 in 10.0 mi ESE 15.0 mph - N/A   Overcast
4:15 AM 29.3 °F 18.6 °F 24.3 °F 81% 29.78 in 10.0 mi ESE 13.8 mph 19.6 mph N/A   Overcast
4:35 AM 29.3 °F 19.1 °F 24.4 °F 82% 29.78 in 10.0 mi ESE 12.7 mph - N/A   Overcast
4:55 AM 29.3 °F 18.6 °F 24.6 °F 83% 29.77 in 10.0 mi ESE 13.8 mph - N/A   Overcast
5:15 AM 29.3 °F 19.1 °F 24.6 °F 83% 29.78 in 10.0 mi East 12.7 mph 17.3 mph N/A   Mostly Cloudy
5:35 AM 29.3 °F 18.6 °F 24.8 °F 83% 29.78 in 10.0 mi ESE 13.8 mph - N/A   Mostly Cloudy
5:55 AM 29.3 °F 18.2 °F 24.8 °F 83% 29.77 in 10.0 mi ESE 15.0 mph - N/A   Scattered Clouds
6:15 AM 29.3 °F 18.2 °F 24.8 °F 83% 29.77 in 10.0 mi ESE 15.0 mph - N/A   Clear
6:35 AM 29.3 °F 19.1 °F 25.0 °F 84% 29.78 in 10.0 mi ESE 12.7 mph - N/A   Clear
6:55 AM 29.3 °F 18.6 °F 25.2 °F 85% 29.77 in 10.0 mi ESE 13.8 mph 18.4 mph N/A   Clear
7:15 AM 29.1 °F 18.9 °F 24.8 °F 84% 29.78 in 10.0 mi East 12.7 mph - N/A   Clear
7:35 AM 29.3 °F 17.7 °F 25.2 °F 85% 29.77 in 10.0 mi ESE 16.1 mph 19.6 mph N/A   Clear
7:55 AM 29.8 °F 19.3 °F 25.3 °F 83% 29.77 in 10.0 mi ESE 13.8 mph - N/A   Clear
8:15 AM 30.2 °F 19.3 °F 25.3 °F 82% 29.76 in 10.0 mi ESE 15.0 mph - N/A   Clear
8:35 AM 30.9 °F 20.2 °F 25.7 °F 81% 29.76 in 10.0 mi ESE 15.0 mph 20.7 mph N/A   Clear
8:55 AM 31.1 °F 21.9 °F 25.7 °F 80% 29.77 in 10.0 mi ESE 11.5 mph - N/A   Clear
9:15 AM 32.0 °F 21.6 °F 26.2 °F 79% 29.76 in 10.0 mi ESE 15.0 mph - N/A   Clear
9:35 AM 32.5 °F 22.7 °F 26.4 °F 78% 29.77 in 10.0 mi ESE 13.8 mph 18.4 mph N/A   Clear
9:55 AM 32.9 °F 22.4 °F 26.6 °F 78% 29.76 in 10.0 mi ESE 16.1 mph - N/A   Scattered Clouds
10:15 AM 33.3 °F 22.8 °F 26.8 °F 77% 29.76 in 10.0 mi ESE 16.1 mph 20.7 mph N/A   Mostly Cloudy
10:35 AM 34.9 °F 26.2 °F 27.1 °F 73% 29.78 in 10.0 mi ESE 12.7 mph - N/A   Mostly Cloudy
10:55 AM 34.9 °F 26.2 °F 27.1 °F 73% 29.77 in 10.0 mi ESE 12.7 mph - N/A   Mostly Cloudy
11:15 AM 35.6 °F 27.1 °F 27.3 °F 72% 29.78 in 10.0 mi ESE 12.7 mph - N/A   Scattered Clouds
11:35 AM 36.1 °F 28.7 °F 27.5 °F 71% 29.78 in 10.0 mi ESE 10.4 mph - N/A   Scattered Clouds
11:55 AM 36.5 °F 30.3 °F 28.2 °F 72% 29.78 in 10.0 mi ESE 8.1 mph - N/A   Scattered Clouds
12:15 PM 36.9 °F 29.6 °F 27.9 °F 70% 29.77 in 10.0 mi ESE 10.4 mph - N/A   Clear
12:55 PM 36.7 °F 28.9 °F 28.0 °F 71% 29.76 in 10.0 mi East 11.5 mph 16.1 mph N/A   Clear
1:15 PM 37.9 °F 30.5 °F 28.2 °F 68% 29.76 in 10.0 mi ENE 11.5 mph - N/A   Clear
1:35 PM 38.3 °F 30.9 °F 28.0 °F 67% 29.75 in 10.0 mi East 11.5 mph - N/A   Clear
1:55 PM 38.3 °F 31.4 °F 28.6 °F 68% 29.75 in 10.0 mi East 10.4 mph - N/A   Clear
2:15 PM 37.8 °F 30.7 °F 28.4 °F 69% 29.75 in 10.0 mi ENE 10.4 mph - N/A   Clear
2:35 PM 37.2 °F 30.0 °F 28.4 °F 70% 29.76 in 10.0 mi ENE 10.4 mph - N/A   Clear
2:55 PM 38.3 °F 31.4 °F 28.2 °F 67% 29.76 in 10.0 mi East 10.4 mph - N/A   Clear
3:15 PM 38.3 °F 31.4 °F 28.4 °F 68% 29.76 in 10.0 mi East 10.4 mph - N/A   Clear
3:35 PM 37.6 °F 30.0 °F 28.2 °F 69% 29.76 in 10.0 mi ENE 11.5 mph - N/A   Clear
3:55 PM 37.8 °F 31.3 °F 28.0 °F 68% 29.77 in 10.0 mi ENE 9.2 mph - N/A   Clear
4:15 PM 38.1 °F 31.7 °F 28.0 °F 67% 29.78 in 10.0 mi East 9.2 mph - N/A   Clear
4:35 PM 37.4 °F 31.4 °F 27.5 °F 67% 29.79 in 10.0 mi ENE 8.1 mph - N/A   Clear
4:55 PM 36.5 °F 31.8 °F 27.7 °F 70% 29.79 in 10.0 mi East 5.8 mph - N/A   Clear
5:15 PM 36.5 °F 31.8 °F 27.5 °F 70% 29.81 in 10.0 mi East 5.8 mph - N/A   Scattered Clouds
5:35 PM 35.6 °F 31.7 °F 27.5 °F 72% 29.81 in 10.0 mi East 4.6 mph - N/A   Scattered Clouds
5:55 PM 34.7 °F 28.8 °F 28.8 °F 79% 29.81 in 10.0 mi ENE 6.9 mph - N/A   Scattered Clouds
6:15 PM 34.0 °F 28.8 °F 28.9 °F 82% 29.82 in 10.0 mi ENE 5.8 mph - N/A   Scattered Clouds
6:35 PM 33.3 °F - 28.9 °F 84% 29.84 in 10.0 mi Calm Calm - N/A   Clear
6:55 PM 32.9 °F 28.5 °F 29.1 °F 86% 29.86 in 10.0 mi North 4.6 mph - N/A   Clear
7:15 PM 32.9 °F 28.5 °F 29.1 °F 86% 29.89 in 10.0 mi NNW 4.6 mph - N/A   Scattered Clouds
7:35 PM 32.9 °F 28.5 °F 29.1 °F 86% 29.89 in 10.0 mi NNW 4.6 mph - N/A   Mostly Cloudy
7:55 PM 32.4 °F 26.9 °F 29.3 °F 88% 29.89 in 10.0 mi North 5.8 mph - N/A   Overcast
8:35 PM 32.5 °F 28.1 °F 29.1 °F 87% 29.91 in 10.0 mi NNW 4.6 mph - N/A   Overcast
8:55 PM 32.4 °F 27.9 °F 29.3 °F 88% 29.92 in 10.0 mi North 4.6 mph - N/A   Overcast
9:15 PM 32.4 °F 26.9 °F 29.1 °F 88% 29.92 in 10.0 mi NW 5.8 mph - N/A   Overcast
9:35 PM 32.4 °F 27.9 °F 28.9 °F 87% 29.93 in 10.0 mi NW 4.6 mph - N/A   Overcast
9:55 PM 32.0 °F 28.7 °F 29.3 °F 90% 29.92 in 7.0 mi North 3.5 mph - N/A   Light Drizzle
10:15 PM 32.0 °F 27.5 °F 29.3 °F 90% 29.92 in 7.0 mi NW 4.6 mph - N/A Snow Light Snow
10:35 PM 32.0 °F 27.5 °F 29.5 °F 90% 29.92 in 2.0 mi NW 4.6 mph - N/A Snow Light Snow
10:55 PM 31.6 °F 27.0 °F 30.0 °F 94% 29.92 in 3.0 mi NW 4.6 mph - N/A Snow Light Snow
11:15 PM 31.6 °F 27.0 °F 30.0 °F 94% 29.92 in 3.0 mi NW 4.6 mph - N/A Snow Light Snow
11:35 PM 31.5 °F 25.8 °F 30.0 °F 94% 29.92 in 3.0 mi NW 5.8 mph - N/A Snow Light Snow
11:55 PM 31.5 °F 26.8 °F 30.2 °F 95% 29.92 in 1.5 mi NW 4.6 mph - N/A Snow Light Snow